When you browse on this site, cookies collect data to enhance your experience and personalize the content and advertising you see.
Visit our Privacy Policy to learn more. By continuing to use the site, you agree to this use of cookies and data.
  • In Hungary
  • List of Countries
  • For 7 days
  • Water Temperature
  • Satellite Maps
  • Weather Map
  • News
  • Weather Widgets
  • user-avatar
    Login

    Hourly Weather Tangaur

    Today, 24 January, Thursday

    Time Temperature Precipitation Wind Pressure Humidity
    00:00 -24°C° 0 mm 1 mps 746 mmHg 99%
    01:00 -25°C° 0 mm 1 mps 746 mmHg 99%
    02:00 -25°C° 0 mm 0 mps 746 mmHg 99%
    03:00 -25°C° 0 mm 0 mps 747 mmHg 99%
    04:00 -26°C° 0 mm 0 mps 747 mmHg 99%
    05:00 -26°C° 0 mm 0 mps 748 mmHg 99%
    06:00 -25°C° 0 mm 0 mps 748 mmHg 99%
    07:00 -25°C° 0 mm 0 mps 748 mmHg 99%
    08:00 -24°C° 0 mm 0 mps 749 mmHg 99%
    09:00 -23°C° 0 mm 1 mps 749 mmHg 98%
    10:00 -22°C° 0 mm 1 mps 749 mmHg 97%
    11:00 -21°C° 0 mm 1 mps 750 mmHg 95%
    12:00 -19°C° 0 mm 1 mps 750 mmHg 94%
    13:00 -18°C° 0 mm 1 mps 750 mmHg 93%
    14:00 -18°C° 0 mm 1 mps 749 mmHg 94%
    15:00 -18°C° 0 mm 1 mps 749 mmHg 94%
    16:00 -19°C° 0 mm 1 mps 749 mmHg 95%
    17:00 -20°C° 0 mm 2 mps 749 mmHg 94%
    18:00 -20°C° 0 mm 2 mps 749 mmHg 92%
    19:00 -20°C° 0 mm 2 mps 749 mmHg 91%
    20:00 -18°C° 0 mm 2 mps 748 mmHg 89%
    21:00 -18°C° 0 mm 3 mps 748 mmHg 87%
    22:00 -17°C° 0 mm 3 mps 747 mmHg 86%
    23:00 -18°C° 0.3 mm 5 mps 746 mmHg 88%

    Tomorrow, 25 January, Friday

    Time Temperature Precipitation Wind Pressure Humidity
    00:00 -17°C° 0.3 mm 6 mps 746 mmHg 90%
    01:00 -18°C° 0.3 mm 7 mps 745 mmHg 92%
    02:00 -17°C° 0.6 mm 8 mps 744 mmHg 90%
    03:00 -17°C° 0.6 mm 8 mps 743 mmHg 89%
    04:00 -17°C° 0.6 mm 9 mps 743 mmHg 87%
    05:00 -17°C° 1.1 mm 9 mps 742 mmHg 90%
    06:00 -17°C° 1.1 mm 9 mps 741 mmHg 92%
    07:00 -17°C° 1.1 mm 9 mps 740 mmHg 94%
    08:00 -17°C° 1.1 mm 8 mps 740 mmHg 94%
    09:00 -17°C° 1.1 mm 8 mps 739 mmHg 94%
    10:00 -17°C° 1.1 mm 8 mps 739 mmHg 95%
    11:00 -15°C° 0.7 mm 7 mps 738 mmHg 94%
    12:00 -15°C° 0.7 mm 7 mps 737 mmHg 94%
    13:00 -14°C° 0.7 mm 6 mps 737 mmHg 94%
    14:00 -12°C° 0.4 mm 6 mps 737 mmHg 94%
    15:00 -10°C° 0.4 mm 6 mps 737 mmHg 94%
    16:00 -8°C° 0.4 mm 5 mps 737 mmHg 94%
    17:00 -11°C° 0.1 mm 5 mps 738 mmHg 94%
    18:00 -14°C° 0.1 mm 4 mps 738 mmHg 94%
    19:00 -16°C° 0.1 mm 4 mps 739 mmHg 94%
    20:00 -17°C° 0 mm 3 mps 740 mmHg 95%
    21:00 -18°C° 0 mm 3 mps 741 mmHg 96%
    22:00 -21°C° 0 mm 3 mps 741 mmHg 97%
    23:00 -20°C° 0 mm 2 mps 742 mmHg 97%

    Day after tomorrow, 26 January, Saturday

    Time Temperature Precipitation Wind Pressure Humidity
    00:00 -21°C° 0 mm 2 mps 743 mmHg 98%
    01:00 -23°C° 0 mm 2 mps 744 mmHg 98%
    02:00 -24°C° 0 mm 2 mps 744 mmHg 98%
    03:00 -25°C° 0 mm 2 mps 745 mmHg 98%
    04:00 -26°C° 0 mm 2 mps 745 mmHg 98%
    05:00 -26°C° 0 mm 2 mps 746 mmHg 97%
    06:00 -26°C° 0 mm 2 mps 746 mmHg 97%
    07:00 -23°C° 0 mm 1 mps 746 mmHg 96%
    08:00 -22°C° 0 mm 1 mps 747 mmHg 94%
    09:00 -21°C° 0 mm 1 mps 747 mmHg 93%
    10:00 -20°C° 0 mm 1 mps 748 mmHg 91%
    11:00 -19°C° 0 mm 1 mps 748 mmHg 90%
    12:00 -17°C° 0 mm 1 mps 748 mmHg 89%
    13:00 -15°C° 0 mm 1 mps 748 mmHg 87%
    14:00 -18°C° 0 mm 2 mps 748 mmHg 88%
    15:00 -18°C° 0 mm 2 mps 748 mmHg 89%
    16:00 -18°C° 0 mm 2 mps 748 mmHg 89%
    17:00 -19°C° 0 mm 2 mps 749 mmHg 89%
    18:00 -20°C° 0 mm 2 mps 749 mmHg 88%
    19:00 -21°C° 0 mm 2 mps 749 mmHg 88%
    20:00 -21°C° 0 mm 2 mps 749 mmHg 85%
    21:00 -20°C° 0 mm 2 mps 749 mmHg 82%
    22:00 -20°C° 0 mm 2 mps 749 mmHg 79%
    23:00 -20°C° 0 mm 2 mps 749 mmHg 78%

    27 January, Sunday

    Time Temperature Precipitation Wind Pressure Humidity
    00:00 -20°C° 0 mm 2 mps 749 mmHg 76%
    01:00 -21°C° 0 mm 2 mps 749 mmHg 75%
    02:00 -23°C° 0 mm 3 mps 749 mmHg 75%
    03:00 -22°C° 0 mm 3 mps 749 mmHg 75%
    04:00 -22°C° 0 mm 3 mps 749 mmHg 76%
    05:00 -22°C° 0 mm 3 mps 749 mmHg 75%
    06:00 -23°C° 0 mm 4 mps 749 mmHg 75%
    07:00 -23°C° 0 mm 4 mps 749 mmHg 74%
    08:00 -22°C° 0 mm 4 mps 749 mmHg 74%
    09:00 -21°C° 0 mm 5 mps 749 mmHg 73%
    10:00 -22°C° 0 mm 6 mps 749 mmHg 73%
    11:00 -20°C° 0 mm 6 mps 749 mmHg 72%
    12:00 -19°C° 0 mm 7 mps 748 mmHg 71%
    13:00 -18°C° 0 mm 7 mps 748 mmHg 71%
    14:00 -18°C° 0 mm 7 mps 748 mmHg 70%
    15:00 -18°C° 0 mm 7 mps 747 mmHg 70%
    16:00 -19°C° 0 mm 7 mps 747 mmHg 69%
    17:00 -19°C° 0 mm 7 mps 747 mmHg 69%
    18:00 -20°C° 0 mm 7 mps 747 mmHg 68%
    19:00 -20°C° 0 mm 7 mps 747 mmHg 67%
    20:00 -20°C° 0 mm 7 mps 746 mmHg 66%
    21:00 -20°C° 0 mm 7 mps 746 mmHg 66%
    22:00 -20°C° 0 mm 7 mps 746 mmHg 65%
    23:00 -20°C° 0 mm 7 mps 746 mmHg 65%

    28 January, Monday

    Time Temperature Precipitation Wind Pressure Humidity
    00:00 -20°C° 0 mm 7 mps 745 mmHg 65%
    01:00 -20°C° 0 mm 7 mps 745 mmHg 64%
    02:00 -20°C° 0 mm 7 mps 745 mmHg 65%
    03:00 -20°C° 0 mm 7 mps 744 mmHg 65%
    04:00 -20°C° 0 mm 7 mps 744 mmHg 65%
    05:00 -20°C° 0 mm 7 mps 743 mmHg 67%
    06:00 -21°C° 0 mm 8 mps 743 mmHg 68%
    07:00 -21°C° 0 mm 8 mps 743 mmHg 69%
    08:00 -19°C° 0 mm 8 mps 742 mmHg 71%
    09:00 -18°C° 0 mm 8 mps 742 mmHg 73%
    10:00 -18°C° 0 mm 8 mps 741 mmHg 75%
    11:00 -17°C° 0 mm 8 mps 741 mmHg 76%
    12:00 -16°C° 0 mm 8 mps 740 mmHg 77%
    13:00 -16°C° 0 mm 8 mps 740 mmHg 78%
    14:00 -16°C° 0.2 mm 8 mps 739 mmHg 81%
    15:00 -15°C° 0.2 mm 7 mps 739 mmHg 84%
    16:00 -15°C° 0.2 mm 7 mps 738 mmHg 86%
    17:00 -17°C° 0.2 mm 7 mps 738 mmHg 88%
    18:00 -17°C° 0.2 mm 7 mps 738 mmHg 89%
    19:00 -17°C° 0.2 mm 7 mps 737 mmHg 90%
    20:00 -17°C° 0.2 mm 7 mps 737 mmHg 90%
    21:00 -18°C° 0.2 mm 7 mps 737 mmHg 90%
    22:00 -18°C° 0.2 mm 7 mps 736 mmHg 89%
    23:00 -18°C° 0.2 mm 7 mps 736 mmHg 90%

    29 January, Tuesday

    Time Temperature Precipitation Wind Pressure Humidity
    00:00 -16°C° 0.2 mm 6 mps 736 mmHg 90%
    01:00 -16°C° 0.2 mm 6 mps 735 mmHg 90%
    02:00 -15°C° 0.3 mm 5 mps 735 mmHg 91%
    03:00 -15°C° 0.3 mm 5 mps 735 mmHg 92%
    04:00 -15°C° 0.3 mm 4 mps 735 mmHg 93%
    05:00 -15°C° 0.1 mm 4 mps 735 mmHg 93%
    06:00 -14°C° 0.1 mm 3 mps 735 mmHg 93%
    07:00 -14°C° 0.1 mm 3 mps 735 mmHg 92%
    08:00 -14°C° 0.1 mm 3 mps 735 mmHg 92%
    09:00 -14°C° 0.1 mm 3 mps 735 mmHg 92%
    10:00 -12°C° 0.1 mm 2 mps 735 mmHg 92%
    11:00 -10°C° 0.1 mm 2 mps 735 mmHg 92%
    12:00 -10°C° 0.1 mm 2 mps 735 mmHg 92%
    13:00 -9°C° 0.1 mm 2 mps 735 mmHg 92%
    14:00 -7°C° 0.1 mm 1 mps 736 mmHg 93%
    15:00 -7°C° 0.1 mm 1 mps 736 mmHg 93%
    16:00 -7°C° 0.1 mm 1 mps 736 mmHg 94%
    17:00 -7°C° 0.1 mm 1 mps 736 mmHg 95%
    18:00 -8°C° 0.1 mm 1 mps 737 mmHg 96%
    19:00 -8°C° 0.1 mm 1 mps 737 mmHg 97%
    20:00 -9°C° 0.1 mm 1 mps 737 mmHg 97%
    21:00 -10°C° 0.1 mm 1 mps 738 mmHg 97%
    22:00 -10°C° 0.1 mm 1 mps 738 mmHg 97%
    23:00 -10°C° 0 mm 1 mps 738 mmHg 97%
    Show more